Regional Weather Roundup
Issued by NWS

Home | Current Version | Previous Version | Graphics & Text | Print | Product List | Glossary On
Versions: 1 2 3 4 5 6 7 8 9 10 11 12 13 14 15 16 17 18 19 20 21 22 23 24 25 26 27 28 29 30 31 32 33 34 35 36 37 38 39 40 41 42 43 44 45 46 47 48 49 50
000
ASUS43 KIND 201609
RWRIN

WEATHER ROUNDUP FOR INDIANA
NATIONAL WEATHER SERVICE INDIANAPOLIS IN
1200 PM EDT WED SEP 20 2017

NOTE: "FAIR" INDICATES FEW OR NO CLOUDS BELOW 12,000 FEET WITH NO
SIGNIFICANT WEATHER AND/OR OBSTRUCTIONS TO VISIBILITY.

* - STATION DOES NOT REPORT WEATHER SUCH AS PRECIPITATION OR FOG.

+ - STATION NOT QUALITY CONTROLLED BY THE NATIONAL WEATHER SERVICE.
    USE DATA WITH CAUTION...ESPECIALLY DEWPOINT AND RELATIVE
    HUMIDITY OBSERVATIONS.

INZ001>003-010>013-019-020-201700-
NORTHWEST INDIANA

CITY           SKY/WX    TMP DP  RH WIND       PRES   REMARKS
GARY /AIRPORT/ SUNNY     81  68  65 S14       29.93S
KNOX *+        SUNNY     77  70  78 S7        29.96F
LA PORTE +     SUNNY     77  69  76 S6        29.96F
MICHIGAN CITY+ SUNNY     79  68  69 SE5       29.95F
MONTICELLO +   SUNNY     80  71  74 S7        29.96F
RENSSELAER +   SUNNY     81  66  61 S10       29.95F
VALPARAISO     SUNNY     81  70  69 SE8       29.96S

$$

LMZ046-743>745-201700-
SOUTHERN LAKE MICHIGAN

STATION/POSITION TIME  TEMP    WIND        PRES    WAVE
                       AIR SEA DIR/SP/G            HT
                 (UTC) (F)     (DEG/KT/KT) (MB)    (FT)
BURNS HARBOR     1540   79     170/  7/ 14 1013.9F
MICHIGAN CITY    1540   76     130/ 11/ 13   N/A
5NW MICH CITY    1600   74 69  160/ 10/ 12   N/A     1

$$

INZ004-005-014>016-021>024-201700-
NORTH CENTRAL INDIANA

CITY           SKY/WX    TMP DP  RH WIND       PRES   REMARKS
ELKHART        MOSUNNY   73  68  83 S7        29.99S
GOSHEN         CLOUDY    73  67  81 SE6       30.00S HAZE
LOGANSPORT +   SUNNY     81  70  69 S8        29.99S
PERU/GRISSOM   SUNNY     81  72  74 S8        29.99S
SOUTH BEND     SUNNY     74  69  85 SE10      29.98F
WARSAW +       MOSUNNY   72  70  94 S5        30.01S FOG

$$

INZ006>009-017-018-025>027-201700-
NORTHEAST INDIANA

CITY           SKY/WX    TMP DP  RH WIND       PRES   REMARKS
AUBURN +       CLOUDY    68  68 100 CALM      30.03S FOG
FORT WAYNE     MOSUNNY   78  69  73 CALM      30.02S
HUNTINGTON +   SUNNY     79  70  74 S3        30.00F
KENDALLVILLE + CLOUDY    69  69 100 S5        30.03S FOG

$$

INZ028-029-035-036-043>045-051>053-201700-
WEST CENTRAL INDIANA

CITY           SKY/WX    TMP DP  RH WIND       PRES   REMARKS
GREENCASTLE +  SUNNY     81  70  69 S7        30.01S
LAFAYETTE      SUNNY     82  71  69 SW6       29.96F
TERRE HAUTE    SUNNY     84  69  60 S7        29.98F

$$

INZ030>032-037>040-046>048-054>057-064-065-201700-
CENTRAL INDIANA

CITY           SKY/WX    TMP DP  RH WIND       PRES   REMARKS
CP ATTERBURY + MOSUNNY   79  70  73 S7        30.03S
COLUMBUS       SUNNY     79  70  73 S6        30.03R
FISHERS *+     SUNNY     81  73  78 S5        30.02
FRANKFORT +    CLOUDY    85  73  66 S7        30.01S
GREENWOOD *+   SUNNY     79  73  82 S5        30.03S
INDIANAPOLIS   MOSUNNY   79  71  76 S8        30.01S
-EAGLE CREEK   SUNNY     79  69  71 S7        30.01S
KOKOMO +       SUNNY     80  72  76 S9        30.01S
MT COMFORT *+    N/A    N/A N/A N/A MISG        N/A
SHELBYVILLE    SUNNY     80  70  71 S6        30.02S
ZIONSVILLE +   SUNNY     78  71  77 S8        30.02S

$$

INZ033-034-041-042-049-050-058-059-201700-
EAST CENTRAL INDIANA

CITY           SKY/WX    TMP DP  RH WIND       PRES   REMARKS
MUNCIE         SUNNY     81  69  67 SW6       30.02F
RICHMOND +     SUNNY     77  68  73 SW7       30.06S

$$

INZ060-061-067>069-081>083-085>088-201700-
SOUTHWEST INDIANA

CITY           SKY/WX    TMP DP  RH WIND       PRES   REMARKS
EVANSVILLE     SUNNY     81  72  74 SE6       30.01S
HUNTINGBURG +    N/A    N/A N/A N/A MISG        N/A
WASHINGTON +   PTSUNNY   85  68  55 S8        30.00S

$$

INZ062-063-066-070>080-084-089>092-201700-
SOUTH CENTRAL AND SOUTHEAST INDIANA

CITY           SKY/WX    TMP DP  RH WIND       PRES   REMARKS
BEDFORD +      SUNNY     81  70  69 SE6       30.02S
BLOOMINGTON    SUNNY     81  70  69 VRB6      30.02S
MADISON *+     MOSUNNY   73  72  94 SE3       30.07S
NORTH VERNON + MOSUNNY   79  70  73 S3        30.05S
SEYMOUR +      SUNNY     81  72  74 S5        30.03S

$$





USA.gov is the U.S. government's official web portal to all federal, state and local government web resources and services.